Fort Leonard Wood, MO

1:37 AM CDT on March 25, 2017 (GMT -0500)
Waynesville Regional At Forney Field

Weather History for KTBN - February, 2013

Change the Weather History Date:

Thursday, February 14, 2013

  Actual Average Record
Temperature  
Mean Temperature 45 °F -  
Max Temperature 54 °F 46 °F 68 °F (2005)
Min Temperature 36 °F 31 °F 14 °F (2007)
Degree Days  
Heating Degree Days 20    
Moisture  
Dew Point 29 °F    
Average Humidity 57    
Maximum Humidity 79    
Minimum Humidity 34    
Precipitation  
Precipitation 0.00 in - - ()
Sea Level Pressure  
Sea Level Pressure 29.98 in    
Wind  
Wind Speed 7 mph (West)    
Max Wind Speed 14 mph    
Max Gust Speed 18 mph    
Visibility 10 miles    
Events      
Averages and records for this station are not official NWS values.
T = Trace of Precipitation, MM = Missing Value Source: NWS Daily Summary

Daily Weather History Graph

Daily Weather History Graph

Search for Another Location

Airport or City:

Trip Planner

Search our weather history database for the weather conditions in past years. The results will help you decide how hot, cold, wet, or windy it might be!

Date:

Astronomy

Feb. 14, 2013 Rise Set
Actual Time 6:59 AM CST 5:46 PM CST
Civil Twilight 6:32 AM CST 6:13 PM CST
Nautical Twilight 6:01 AM CST 6:44 PM CST
Astronomical Twilight 5:30 AM CST 7:15 PM CST
Moon 9:07 AM CST (2/14) 10:43 PM CST (2/14)
Length of Visible Light 11h 41m
Length of Day
10h 47m
Waxing Crescent, 22% of the Moon is Illuminated
Feb 14
Waxing Crescent
Feb 17
First Quarter
Feb 25
Full
Mar 4
Last Quarter
Mar 11
New

Hourly Weather History & Observations

Time (CST) Temp. Windchill Dew Point Humidity Pressure Visibility Wind Dir Wind Speed Gust Speed Precip Events Conditions
12:55 AM 37.4 °F 33.8 °F 31.3 °F 79% 29.89 in 10.0 mi SW 4.6 mph - N/A   Partly Cloudy
1:55 AM 37.9 °F 33.5 °F 31.1 °F 76% 29.89 in 10.0 mi SW 5.8 mph - N/A   Partly Cloudy
2:55 AM 39.4 °F 35.2 °F 30.0 °F 69% 29.88 in 10.0 mi SW 5.8 mph - N/A   Partly Cloudy
3:55 AM 38.7 °F 34.3 °F 29.1 °F 69% 29.88 in 10.0 mi SW 5.8 mph - N/A   Clear
4:55 AM 38.1 °F 33.7 °F 28.4 °F 68% 29.88 in 10.0 mi SW 5.8 mph - N/A   Clear
5:55 AM 37.2 °F 32.6 °F 28.0 °F 69% 29.89 in 10.0 mi SW 5.8 mph - N/A   Clear
6:55 AM 36.7 °F 31.2 °F 27.9 °F 70% 29.92 in 10.0 mi SW 6.9 mph - N/A   Clear
7:55 AM 38.5 °F 32.7 °F 28.0 °F 66% 29.95 in 10.0 mi West 8.1 mph - N/A   Clear
8:55 AM 41.9 °F 37.5 °F 29.3 °F 61% 29.98 in 10.0 mi West 6.9 mph - N/A   Clear
9:55 AM 46.0 °F 41.0 °F 31.5 °F 57% 29.98 in 10.0 mi West 10.4 mph - N/A   Clear
10:55 AM 49.5 °F - 32.5 °F 52% 29.99 in 10.0 mi West 9.2 mph - N/A   Clear
11:55 AM 50.9 °F - 32.2 °F 49% 29.99 in 10.0 mi West 6.9 mph - N/A   Scattered Clouds
12:55 PM 54.0 °F - 32.0 °F 43% 29.97 in 10.0 mi West 10.4 mph - N/A   Partly Cloudy
1:55 PM 53.2 °F - 29.1 °F 40% 29.96 in 10.0 mi West 8.1 mph - N/A   Partly Cloudy
2:55 PM 53.6 °F - 26.8 °F 36% 29.97 in 10.0 mi West 13.8 mph - N/A   Partly Cloudy
3:55 PM 53.8 °F - 25.7 °F 34% 29.98 in 10.0 mi WNW 12.7 mph 18.4 mph N/A   Clear
4:55 PM 51.3 °F - 27.3 °F 40% 30.01 in 10.0 mi NW 10.4 mph - N/A   Clear
5:55 PM 48.7 °F - 28.4 °F 45% 30.03 in 10.0 mi WNW 5.8 mph - N/A   Mostly Cloudy
6:55 PM 46.8 °F - 28.2 °F 49% 30.06 in 10.0 mi NW 5.8 mph - N/A   Mostly Cloudy
7:55 PM 45.3 °F 42.3 °F 28.4 °F 52% 30.07 in 10.0 mi WNW 5.8 mph - N/A   Overcast
8:55 PM 43.7 °F 41.1 °F 29.3 °F 57% 30.08 in 10.0 mi NW 4.6 mph - N/A   Overcast
9:55 PM 41.9 °F - 29.1 °F 61% 30.09 in 10.0 mi Calm Calm - N/A   Overcast
10:55 PM 41.5 °F 38.6 °F 30.0 °F 64% 30.10 in 10.0 mi WNW 4.6 mph - N/A   Overcast
11:55 PM 41.4 °F 38.4 °F 30.7 °F 66% 30.11 in 10.0 mi WNW 4.6 mph - N/A   Overcast